Weather History for St. Stephen, NB

Change the Weather History Date:

Tuesday, February 4, 2014

  Actual Average Record
Temperature  
Mean Temperature 17 °F -  
Max Temperature 28 °F - - ()
Min Temperature 6 °F - - ()
Degree Days  
Heating Degree Days 48    
Moisture  
Dew Point 9 °F    
Average Humidity 69    
Maximum Humidity 89    
Minimum Humidity 29    
Precipitation  
Precipitation 0.00 in - - ()
Sea Level Pressure  
Sea Level Pressure 30.35 in    
Wind  
Wind Speed 3 mph ()    
Max Wind Speed 8 mph    
Max Gust Speed -    
T = Trace of Precipitation, MM = Missing Value Source: Averaged Metar Reports

Daily Weather History Graph

Daily Weather History Graph

Search for Another Location

Airport:

Trip Planner

Search our weather history database for the weather conditions in past years. The results will help you decide how hot, cold, wet, or windy it might be!

Date:

Astronomy

Feb. 04, 2014 Rise Set
Actual Time 7:45 AM AST 5:40 PM AST
Civil Twilight 7:14 AM AST 6:11 PM AST
Nautical Twilight 6:39 AM AST 6:47 PM AST
Astronomical Twilight 6:05 AM AST 7:21 PM AST
Moon 10:04 AM AST (2/4) 11:49 PM AST (2/4)
Length of Visible Light 10h 57m
Length of Day
9h 55m
Waxing Crescent, 28% of the Moon is Illuminated
Feb 4
Waxing Crescent
Feb 6
First Quarter
Feb 14
Full
Feb 22
Last Quarter
Mar 1
New

Hourly Weather History & Observations

Time (AST) Temp. Windchill Dew Point Humidity Pressure Visibility Wind Dir Wind Speed Gust Speed Precip Events Conditions
12:00 AM 13.3 °F - 8.8 °F 82% 30.27 in - WNW 2.3 mph - N/A   Unknown
1:00 AM 12.4 °F 6.3 °F 8.2 °F 83% 30.28 in - WNW 3.5 mph - N/A   Unknown
2:00 AM 11 °F - 8 °F 81% 30.28 in - WNW 3.5 mph - -  
2:00 AM 11.5 °F 5.3 °F 7.9 °F 85% 30.28 in - WNW 3.5 mph - N/A   Unknown
3:00 AM 11.1 °F 4.9 °F 7.7 °F 86% 30.29 in - West 3.5 mph - N/A   Unknown
4:00 AM 10.2 °F 3.8 °F 7.0 °F 87% 30.30 in - West 3.5 mph - N/A   Unknown
5:00 AM 10 °F - 6 °F 78% 30.32 in - WNW 2.3 mph - -  
5:00 AM 11.3 °F - 6.3 °F 80% 30.32 in - WNW 2.3 mph - N/A   Unknown
6:00 AM 8.1 °F - 5.5 °F 89% 30.32 in - WSW 2.3 mph - N/A   Unknown
7:00 AM 6.6 °F - 4.1 °F 89% 30.34 in - West 1.2 mph - N/A   Unknown
8:00 AM 6 °F - 4 °F 84% 30.37 in - West 1.2 mph - -  
8:00 AM 6.3 °F - 3.6 °F 89% 30.37 in - West 1.2 mph - N/A   Unknown
9:00 AM 10.2 °F - 5.5 °F 81% 30.40 in - WSW 2.3 mph - N/A   Unknown
10:00 AM 16.2 °F - 8.8 °F 73% 30.39 in - West 2.3 mph - N/A   Unknown
11:00 AM 21 °F - 10 °F 48% 30.40 in - NW 5.8 mph - -  
11:00 AM 20.8 °F 13.2 °F 9.7 °F 62% 30.40 in - NW 5.8 mph - N/A   Unknown
12:00 PM 23.5 °F 16.4 °F 9.7 °F 56% 30.40 in - NW 5.8 mph - N/A   Unknown
1:00 PM 25.5 °F 18.7 °F 8.4 °F 48% 30.37 in - West 5.8 mph - N/A   Unknown
2:00 PM 27 °F - 8 °F 29% 30.33 in - West 8.1 mph - -  
2:00 PM 26.6 °F 18.2 °F 7.5 °F 45% 30.33 in - West 8.1 mph - N/A   Unknown
3:00 PM 28.8 °F 22.6 °F 11.3 °F 48% 30.33 in - WSW 5.8 mph - N/A   Unknown
4:00 PM 28.8 °F 21.7 °F 9.0 °F 43% 30.34 in - West 6.9 mph - N/A   Unknown
5:00 PM 27 °F - 9 °F 32% 30.34 in - WNW 4.6 mph - -  
5:00 PM 27.3 °F 22.0 °F 8.8 °F 46% 30.34 in - WNW 4.6 mph - N/A   Unknown
6:00 PM 24.8 °F - 10.2 °F 54% 30.33 in - West 2.3 mph - N/A   Unknown
7:00 PM 22.3 °F - 11.8 °F 64% 30.36 in - West 2.3 mph - N/A   Unknown
8:00 PM 18 °F - 12 °F 70% 30.37 in - Calm Calm - -  
8:00 PM 18.1 °F - 12.4 °F 78% 30.37 in - Calm Calm - N/A   Unknown
9:00 PM 17.8 °F - 11.8 °F 78% 30.37 in - NW 2.3 mph - N/A   Unknown
10:00 PM 15.4 °F - 10.9 °F 82% 30.38 in - WSW 1.2 mph - N/A   Unknown
11:00 PM 16 °F - 10 °F 69% 30.39 in - West 1.2 mph - -  
11:00 PM 16.3 °F - 10.2 °F 77% 30.39 in - West 1.2 mph - N/A   Unknown